ALOUETTE 1 (S-27) 1 00424U 62049A 10072.32540532 .00000045 00000-0 41734-4 0 3463 2 00424 80.4637 9.1989 0024457 72.8728 287.5091 13.68729757368512 IUE 1 10637U 78012A 10071.86775017 -.00000180 00000-0 10000-3 0 5760 2 10637 43.2668 11.7812 1524035 158.3538 208.8585 1.00054861 70144 IRAS 1 13777U 83004A 10072.06109132 -.00000111 00000-0 -45114-4 0 1370 2 13777 99.0592 267.7836 0022843 177.8098 182.3166 14.00103382 55222 AKEBONO (EXOS-D) 1 19822U 89016A 10072.32263484 .00028447 12002-6 88253-3 0 4695 2 19822 75.0727 49.6790 2678485 5.0944 357.2232 10.04534420622411 INTERCOSMOS 24 1 20261U 89080A 10071.71323826 .00000213 00000-0 54374-4 0 1116 2 20261 82.5842 285.8206 1215938 83.3786 290.3913 12.53469288933221 COBE 1 20322U 89089A 10071.65610210 .00000118 00000-0 10216-3 0 1404 2 20322 98.9978 76.3001 0009412 94.8901 265.3335 14.04386956 40855 HST 1 20580U 90037B 10070.63484211 .00000536 00000-0 28217-4 0 5344 2 20580 28.4686 156.6845 0003419 241.3784 118.6401 15.00916775890089 ROSAT 1 20638U 90049A 10071.85283351 .00012394 00000-0 14030-3 0 9221 2 20638 52.9933 203.2141 0004176 112.5119 247.6332 15.62876356101775 CRRES 1 20712U 90065A 10069.85059838 .00000162 00000-0 62802-4 0 402 2 20712 18.2577 325.0749 7128195 267.9366 16.6198 2.42818177163579 SARA 1 21578U 91050E 10072.73278942 .00000180 00000-0 57188-4 0 7800 2 21578 98.2635 43.2645 0003743 80.7665 279.3940 14.50535356983495 UARS 1 21701U 91063B 10072.57432056 .00011599 00000-0 13888-3 0 9134 2 21701 56.9705 260.3770 0065465 345.0954 14.8176 15.58957451 21174 SAMPEX 1 22012U 92038A 10072.88395665 .00008384 00000-0 19946-3 0 1491 2 22012 81.6371 355.8306 0046687 45.0895 315.4121 15.40283390975909 ORBVIEW 1 (MICROLAB) 1 23547U 95017C 10071.75836359 .00000210 00000-0 62923-4 0 2057 2 23547 69.9821 292.3479 0013751 241.1734 118.8016 14.55569839791695 RXTE (XTE) 1 23757U 95074A 10071.92332213 .00002438 00000-0 70514-4 0 802 2 23757 22.9847 279.7755 0008770 115.9294 244.2132 15.27758875786917 FAST 1 24285U 96049A 10072.56237093 .00002451 00000-0 21518-3 0 8591 2 24285 82.9669 283.2190 1995729 14.8100 350.3561 11.26849777548860 TRACE 1 25280U 98020A 10072.14293016 .00000969 00000-0 84412-4 0 4635 2 25280 97.6585 282.1986 0024608 71.3332 289.0552 14.98992810651345 SAFIR 2 1 25399U 98043F 10072.17971149 -.00000032 00000-0 39598-5 0 5778 2 25399 98.3133 92.6186 0002771 112.2729 247.8773 14.23955399606639 SWAS 1 25560U 98071A 10072.32068049 .00000205 00000-0 32377-4 0 1934 2 25560 69.9001 55.4918 0010546 213.1572 146.8909 14.86969666610379 ASTRID 2 1 25568U 98072B 10071.85538293 .00000082 00000-0 73543-4 0 3130 2 25568 82.9502 141.5919 0026306 32.9634 327.3148 13.72007766563504 ORSTED 1 25635U 99008B 10072.48907465 .00000087 00000-0 29022-4 0 8656 2 25635 96.4670 204.6749 0144375 53.5398 307.9029 14.45864858582653 SUNSAT (SO-35) 1 25636U 99008C 10072.08330505 .00000034 00000-0 16303-4 0 5565 2 25636 96.4728 196.6555 0149524 90.3517 271.4813 14.43492034581898 WIRE 1 25646U 99011A 10072.32749449 .00018179 00000-0 21151-3 0 647 2 25646 97.2615 347.9455 0005414 184.2717 175.8754 15.61749054617010 ABRIXAS 1 25721U 99022A 10071.94198202 .00000478 00000-0 35840-4 0 7949 2 25721 48.4378 39.1593 0020345 342.7242 17.2986 15.20551266601352 TERRIERS 1 25735U 99026A 10071.67260231 .00000614 00000-0 27995-4 0 9531 2 25735 97.1840 299.2186 0006836 176.3797 183.7494 15.24148590599775 FUSE 1 1 25791U 99035A 10071.58673678 .00000234 00000-0 16047-4 0 6526 2 25791 24.9847 122.5110 0010536 212.8934 147.0927 14.41815760565177 CXO 1 25867U 99040B 10071.20833333 .00000012 00000-0 10000-3 0 4378 2 25867 66.6648 58.2087 8011732 275.2290 357.2425 0.37806311 6020 CLEMENTINE 1 25978U 99064B 10071.72931299 .00000566 00000-0 72014-4 0 8950 2 25978 98.1161 156.7139 0010124 339.8399 20.2447 14.85610898555782 XMM-NEWTON 1 25989U 99066A 10070.25000000 .00000246 00000-0 10000-3 0 8207 2 25989 60.1622 94.8740 5991460 107.6556 357.0475 0.50144213 7578 TERRA 1 25994U 99068A 10072.70702848 .00000105 00000-0 33257-4 0 5926 2 25994 98.2115 148.7136 0000560 81.4794 278.6467 14.57111032544403 ACRIMSAT 1 26033U 99070B 10071.70695451 .00000099 00000-0 29385-4 0 8993 2 26033 97.9417 309.1046 0029784 74.0128 286.4361 14.60588647544741 IMAGE 1 26113U 00017A 10070.36046871 .00000312 00000-0 10000-3 0 9309 2 26113 91.3836 215.1763 7297165 254.5375 20.7479 1.68637964 61329 CLUSTER II-FM6 1 26410U 00041A 10071.62500000 .00001172 00000-0 00000-0 0 4626 2 26410 123.4863 207.5765 8790963 41.4891 357.8569 0.44210684 5752 CLUSTER II-FM7 1 26411U 00041B 10071.62500000 .00001171 00000-0 00000-0 0 4716 2 26411 123.4366 207.5609 8786224 41.5522 358.0350 0.44209576 5833 CLUSTER II-FM5 1 26463U 00045A 10071.62500000 .00001033 00000-0 00000-0 0 4590 2 26463 125.4331 208.8297 8641303 40.1792 358.1708 0.44210950 6335 CLUSTER II-FM8 1 26464U 00045B 10071.62500000 .00000226 00000-0 00000+0 0 4548 2 26464 117.1100 196.2356 8819767 33.5893 357.6887 0.44208689 5723 MEGSAT-1 1 26546U 00057B 10071.76003859 -.00000006 00000-0 17297-4 0 9270 2 26546 64.5598 318.1423 0039876 234.7948 124.9387 14.84311219512044 HETE-2 1 26561U 00061A 10071.73728679 .00001400 00000-0 50829-4 0 5242 2 26561 1.9471 33.6563 0023488 9.6011 350.4554 14.96196079515393 MUNIN 1 26621U 00075C 10072.45421795 .00000466 00000-0 42867-3 0 7877 2 26621 95.4149 320.0672 0717493 63.4014 303.8794 13.03712927442795 ODIN 1 26702U 01007A 10071.67652758 .00001169 00000-0 10978-3 0 9546 2 26702 97.6945 92.6703 0002456 299.5229 60.5773 14.95842241493599 TIMED 1 26998U 01055B 10072.70731274 .00000090 00000-0 15097-4 0 5234 2 26998 74.0745 176.9681 0001831 234.1779 125.9206 14.84143934447503 RHESSI 1 27370U 02004A 10072.27800322 .00000721 00000-0 61328-4 0 2693 2 27370 38.0396 8.7926 0015992 215.0801 144.8907 15.02394376444213 INTEGRAL 1 27540U 02048A 10071.25000000 .00000195 00000-0 10000-3 0 9054 2 27540 84.3426 346.1296 8633527 257.7870 357.6127 0.33407923 5195 FEDSAT 1 27598U 02056B 10072.03773751 -.00000029 00000-0 50762-5 0 243 2 27598 98.3378 117.4033 0009609 156.5788 203.5833 14.28027935377613 WEOS 1 27599U 02056C 10072.19307835 -.00000059 00000-0 -69553-5 0 351 2 27599 98.3596 123.8387 0010348 167.6247 192.5203 14.28587239377777 MICRO LABSAT 1 27600U 02056D 10072.29941808 .00000041 00000-0 32689-4 0 10 2 27600 98.3527 123.4918 0011219 170.7508 189.3874 14.28880947377874 CORIOLIS 1 27640U 03001A 10072.48575803 .00000201 00000-0 11842-3 0 2134 2 27640 98.7538 79.9246 0014241 6.4049 353.7317 14.18366968371836 CHIPSAT 1 27643U 03002B 10071.84478744 .00000499 00000-0 44125-4 0 3279 2 27643 94.0103 86.7940 0009984 228.5652 131.4754 14.97394794391167 SORCE 1 27651U 03004A 10071.97608229 .00000214 00000-0 42153-4 0 1471 2 27651 39.9962 270.8037 0024271 52.4643 307.8349 14.82279190386181 GALEX 1 27783U 03017A 10072.33894776 .00000288 00000-0 37575-4 0 8926 2 27783 28.9991 61.0319 0004298 213.5870 146.4423 14.59804615367144 MOST 1 27843U 03031D 10072.63896902 -.00000011 00000-0 15256-4 0 7943 2 27843 98.7204 81.5867 0010782 95.2828 264.9587 14.20131775347425 QUAKESAT 1 27845U 03031F 10072.61391544 .00000105 00000-0 69205-4 0 7727 2 27845 98.7200 82.4235 0009779 102.8499 257.3771 14.20333607347413 AAU CUBESAT 1 27846U 03031G 10072.01277776 .00000024 00000-0 31368-4 0 7035 2 27846 98.7036 83.2596 0010366 67.1637 293.0628 14.21020689347525 SCISAT 1 1 27858U 03036A 10072.32589039 .00000037 00000-0 10693-4 0 9747 2 27858 73.9351 12.6567 0007759 1.0158 359.1029 14.74842407354394 KAISTSAT 4 1 27945U 03042G 10072.58509987 .00000059 00000-0 20140-4 0 9149 2 27945 97.9106 303.1276 0012702 15.2883 344.8711 14.63176414344974 GP-B 1 28230U 04014A 10071.84680755 .00000021 00000-0 83748-6 0 7353 2 28230 89.9397 156.1164 0001804 77.2613 282.8803 14.76024600317401 DEMETER 1 28368U 04025C 10072.73060428 .00000079 00000-0 21106-4 0 4667 2 28368 97.9757 137.4054 0001342 95.4329 264.7020 14.70126017305322 DOUBLESTAR (TC-2) 1 28382U 04029A 10072.12825578 -.00000029 00000-0 10000-3 0 3020 2 28382 89.1415 333.3453 7274028 239.4946 350.6392 2.11746356 43330 SWIFT 1 28485U 04047A 10072.59140007 .00001011 00000-0 57177-4 0 5303 2 28485 20.5585 149.7709 0014537 158.0722 202.0427 14.92685839289973 SUZAKU (ASTRO-EII) 1 28773U 05025A 10072.18424862 .00000638 00000-0 43215-4 0 2050 2 28773 31.4053 5.0576 0006453 335.3816 24.6519 15.00975368256650 AKARI (ASTRO-F) 1 28939U 06005A 10072.71434456 .00000129 00000-0 38371-4 0 2289 2 28939 98.2534 78.6382 0009301 68.1589 292.0594 14.57604590215356 FORMOSAT-3 FM6 1 29047U 06011A 10071.89269000 -.00000234 00000-0 -77896-4 0 1874 2 29047 71.9789 194.3163 0051149 41.0173 319.4775 14.27106883206068 FORMOSAT-3 FM1 1 29048U 06011B 10072.62312888 .00000390 00000-0 17471-3 0 2379 2 29048 71.9694 107.9865 0045353 349.0393 10.9711 14.27142352208648 FORMOSAT-3 FM5 1 29049U 06011C 10072.00773957 .00000361 00000-0 16364-3 0 1849 2 29049 72.0189 259.8140 0034854 51.9075 308.5170 14.27156478204334 FORMOSAT-3 FM3 1 29050U 06011D 10072.87994548 .00001101 00000-0 26646-3 0 4678 2 29050 72.0079 51.7642 0054289 276.1657 83.3232 14.54150056210443 FORMOSAT-3 FM4 1 29051U 06011E 10071.82954744 .00000373 00000-0 16522-3 0 2419 2 29051 72.0074 168.7219 0071232 281.9930 77.3226 14.27151018206892 FORMOSAT-3 FM2 1 29052U 06011F 10072.01757490 .00000360 00000-0 16273-3 0 2623 2 29052 72.0331 231.2463 0040824 20.6946 339.5834 14.27163821205223 CLOUDSAT 1 29107U 06016A 10071.90453576 .00000025 00000-0 15468-4 0 2268 2 29107 98.2006 17.0252 0001202 73.7212 286.3954 14.57121639206004 CALIPSO 1 29108U 06016B 10071.90475126 .00000084 00000-0 28631-4 0 2366 2 29108 98.2008 17.0753 0001166 87.9215 272.2126 14.57114927205985 HINODE (SOLAR-B) 1 29479U 06041A 10072.06420868 .00000103 00000-0 29358-4 0 1094 2 29479 98.0899 76.3073 0014412 271.0941 88.8611 14.62960701185291 SJ-6C 1 29505U 06046A 10072.75055175 -.00000181 00000-0 -12970-4 0 8008 2 29505 97.6936 77.6049 0001805 262.5919 97.5076 14.90712785184241 SJ-6D 1 29506U 06046B 10072.71281406 .00000585 00000-0 66182-4 0 7912 2 29506 97.6964 76.4853 0001478 354.1457 5.9715 14.90019330184153 COROT 1 29678U 06063A 10071.93897228 .00000007 00000-0 -26946-5 0 636 2 29678 89.9345 10.0123 0006557 41.9584 318.2094 13.98124168163665 AIM 1 31304U 07015A 10072.38754208 .00001155 00000-0 11833-3 0 9835 2 31304 97.8002 175.5513 0012781 51.9498 308.2871 14.92370856156940 FGRST (GLAST) 1 33053U 08029A 10071.93097454 .00000278 00000-0 00000-0 0 4603 2 33053 25.5849 334.6400 0013740 339.3590 20.6441 15.05021601 96414 KORONAS-FOTON 1 33504U 09003A 10071.77245319 .00000616 00000-0 40867-4 0 3103 2 33504 82.4780 323.3360 0013946 243.0696 116.9109 15.05404045 61113 TATIANA 2 1 35868U 09049D 10072.32562765 .00000177 00000-0 10000-3 0 1540 2 35868 98.7704 126.8311 0003486 268.9415 91.1344 14.22099708 25107 UGATUSAT 1 35869U 09049E 10071.77713435 .00000176 00000-0 10000-3 0 1506 2 35869 98.7697 126.2374 0003893 290.3776 69.6943 14.21976986 25020 SUMBANDILA (SO-67) 1 35870U 09049F 10072.76657132 .00000707 00000-0 33548-4 0 5348 2 35870 97.3436 124.2671 0009734 39.2425 71.9275 15.22384353 26946 WISE 1 36119U 09071A 10072.22486174 .00000562 00000-0 36039-4 0 732 2 36119 97.5081 78.1225 0001888 164.0167 196.1124 15.12417365 13392 SDO 1 36395U 10005A 10072.25631057 -.00000139 00000-0 10000-3 0 350 2 36395 28.0710 189.2693 0009192 28.4042 287.6043 1.01902495 499